Temp
63 64 64 65 64 65 65 67 67 69 70 72 70 66 65 67 67 70 75 76 74 71 74 71 71 72 71 72 74 74 73 68 65 63 65 67 73 75 76 78 77 77 80
60 62 63 63 63 63 65 65 67 68 69 71 73 70 67 68 68 68 70 74 75 74 69 70 70 72 70 71 71 71 70 72 72 69 68 67 72 75 76 78 78 76 79
54 58 60 63 63 62 63 65 66 67 68 70 71 68 66 66 64 64 66 72 74 73 71 69 69 69 72 68 70 72 71 70 72 71 71 66 64 71 71 76 76 75 77
52 52 57 60 62 63 64 64 65 66 67 69 68 66 62 62 63 65 68 70 71 70 69 70 69 70 68 68 72 73 73 72 70 70 72 75 74 67 62 68 73 72 73
50 51 54 57 61 63 63 63 63 64 66 67 68 67 62 66 66 68 70 71 71 72 71 71 71 68 68 67 68 70 71 72 72 71 69 69 70 70 64 60 68 70 71
47 50 53 55 58 62 63 63 62 62 65 67 67 66 64 63 64 66 68 70 71 71 72 72 72 72 71 69 69 69 68 71 71 71 71 67 63 65 63 58 64 65 69
45 46 48 50 56 57 58 62 62 62 65 66 67 67 66 63 65 68 69 69 69 69 67 70 70 71 72 69 67 65 68 67 66 68 68 71 70 64 61 60 60 62 65
44 45 48 50 52 50 53 58 61 63 63 65 66 66 65 65 66 68 69 69 67 67 69 70 70 71 70 69 69 67 64 65 64 66 68 68 66 63 61 59 58 56 58
42 44 45 47 47 48 49 53 60 63 62 62 66 65 65 64 66 69 70 69 69 68 68 69 67 64 65 65 64 63 62 63 63 63 62 60 60 60 60 60 59 57 54
43 44 45 46 47 47 48 53 59 60 57 55 57 55 55 57 58 55 54 57 56 57 61 63 61 60 60 60 60 59 60 60 60 60 60 60 60 60 60 59 60 59 58
45 45 45 46 46 46 46 48 49 49 49 51 52 52 51 50 51 51 50 51 52 52 51 52 53 54 54 55 55 55 55 57 58 58 59 59 60 59 59 59 59 58 58
49 49 50 49 46 45 45 45 46 46 47 48 48 47 49 48 47 49 48 49 48 49 49 49 49 50 51 52 51 51 51 51 52 52 53 53 55 56 59 59 58 58 60
49 50 50 49 49 48 45 44 44 45 46 47 47 47 46 45 45 45 46 47 48 48 48 49 48 49 49 49 50 50 50 49 49 49 50 50 51 51 52 54 54 55 55
48 48 49 48 49 50 49 48 45 45 45 45 45 44 46 47 46 46 48 46 48 47 49 50 49 49 51 52 51 50 50 50 50 50 50 51 51 51 51 50 51 53 53
47 46 46 47 48 47 48 49 48 48 48 46 46 46 48 48 49 50 50 50 50 49 48 49 49 50 50 48 49 51 51 50 50 51 52 52 49 46 49 51 53 54 54
44 46 47 48 47 47 47 46 47 47 48 47 46 47 47 47 46 47 47 47 47 48 48 48 47 47 48 46 46 47 49 49 48 48 49 51 49 50 48 49 49 49 49
47 47 47 48 48 48 49 48 47 48 47 46 46 45 46 44 44 45 46 45 45 46 45 45 45 45 46 44 45 45 47 45 45 46 46 47 50 49 49 49 48 49 49
48 48 48 47 47 48 48 49 48 47 46 46 44 44 44 43 43 44 43 43 44 43 41 43 44 45 46 44 44 44 47 46 45 46 46 47 48 50 48 48 47 48 48
52 51 50 48 48 47 48 48 46 45 44 43 43 44 45 44 42 42 41 42 43 42 42 43 42 42 44 42 42 43 45 45 45 46 47 46 46 46 44 45 43 45 47
50 49 49 48 48 47 47 45 43 43 42 42 42 43 43 42 42 42 41 42 42 41 41 40 41 40 41 41 41 42 45 44 44 46 46 44 44 43 43 43 43 41 43
48 48 48 47 45 46 46 43 42 40 41 42 42 42 42 42 42 41 40 39 39 38 38 38 40 40 41 41 40 41 42 42 42 42 42 43 42 42 42 42 42 40 43
45 46 45 43 43 43 44 41 39 40 41 41 41 41 41 41 40 39 39 39 39 38 39 40 41 42 42 40 40 40 41 41 40 40 43 43 42 41 42 42 42 42 42
46 46 45 42 41 42 43 41 38 39 39 39 39 38 39 39 39 38 37 38 38 38 38 39 38 39 40 41 41 41 41 41 40 41 41 41 41 41 42 41 41 41 41
44 44 42 41 39 39 39 38 38 38 38 37 37 37 37 36 37 38 38 38 37 37 37 37 36 36 38 39 40 41 42 42 42 41 42 42 41 40 40 40 41 40 37
42 42 42 40 37 37 36 36 36 36 36 36 35 36 36 35 36 37 36 37 38 36 35 36 36 35 34 37 39 39 38 39 40 39 40 38 37 37 37 38 38 38 37
40 39 39 38 36 35 34 34 35 35 33 34 35 35 35 35 35 35 36 36 34 35 35 36 36 37 37 38 39 38 38 40 40 37 35 34 34 34 34 35 35 36 36
MSLP
1010.51 1010.40 1009.98 1009.85 1009.82 1009.77 1009.63 1009.42 1009.44 1009.65 1009.95 1009.74 1009.80 1010.37 1010.41 1010.63 1010.77 1010.65 1010.69 1011.08 1011.81 1012.03 1012.30 1013.07 1013.42 1013.55 1013.99 1014.22 1014.51 1014.92 1015.09 1015.63 1015.96 1016.07 1015.97 1015.79 1015.37 1015.42 1015.18 1015.31 1015.23 1015.29 1015.41
1010.20 1009.78 1009.45 1009.34 1009.33 1009.25 1009.05 1009.03 1008.97 1009.15 1009.35 1009.21 1009.08 1009.67 1010.11 1010.16 1010.27 1010.30 1010.29 1010.52 1011.05 1011.54 1011.73 1012.32 1012.68 1013.16 1013.42 1013.82 1014.07 1014.46 1014.74 1014.65 1015.16 1015.08 1015.36 1014.86 1014.50 1014.25 1014.13 1014.42 1014.39 1014.40 1014.75
1010.71 1009.82 1009.23 1008.82 1008.65 1008.53 1008.44 1008.30 1008.36 1008.59 1008.77 1008.97 1009.04 1009.39 1009.73 1009.95 1010.01 1010.13 1010.21 1010.10 1010.32 1010.84 1011.26 1011.96 1012.38 1012.75 1013.03 1013.13 1013.62 1013.82 1013.88 1013.74 1014.14 1014.55 1014.20 1013.86 1013.32 1013.31 1013.61 1013.76 1013.37 1014.07 1014.16
1011.47 1010.64 1009.59 1008.66 1008.10 1007.82 1007.85 1007.82 1007.81 1008.03 1008.33 1008.54 1008.72 1009.01 1009.22 1009.30 1009.46 1009.67 1009.88 1009.86 1010.10 1010.57 1010.97 1011.38 1011.91 1012.25 1012.50 1012.75 1012.75 1013.21 1013.14 1013.24 1013.15 1013.82 1013.75 1013.01 1013.09 1013.07 1013.06 1013.01 1012.66 1013.85 1014.26
1011.92 1010.66 1009.66 1008.73 1007.97 1007.61 1007.35 1007.35 1007.38 1007.51 1007.71 1007.96 1008.06 1008.42 1009.08 1008.94 1008.94 1009.22 1009.24 1009.45 1009.94 1010.36 1010.54 1010.85 1011.21 1011.72 1011.98 1012.21 1012.57 1012.62 1012.64 1012.63 1012.60 1012.51 1013.03 1013.19 1013.25 1013.44 1013.29 1012.71 1012.96 1014.22 1013.93
1012.01 1010.71 1009.64 1008.67 1007.79 1007.20 1006.86 1006.73 1006.87 1006.93 1007.13 1007.37 1007.65 1007.83 1008.53 1008.80 1008.76 1008.70 1008.98 1009.06 1009.38 1009.84 1010.21 1010.45 1010.68 1010.87 1011.15 1011.48 1011.74 1011.97 1011.97 1012.01 1011.93 1011.94 1012.22 1012.37 1012.71 1012.82 1012.99 1013.10 1012.97 1013.21 1013.20
1012.34 1010.71 1009.32 1008.40 1007.60 1007.27 1006.88 1006.31 1006.43 1006.48 1006.61 1006.81 1007.06 1007.34 1007.91 1008.47 1008.46 1008.36 1008.47 1008.72 1008.92 1009.29 1009.84 1010.05 1010.10 1010.21 1010.35 1010.77 1011.17 1011.35 1011.12 1011.34 1011.41 1011.32 1011.51 1011.72 1011.91 1012.22 1012.47 1012.52 1012.80 1013.02 1013.27
1012.67 1010.78 1008.54 1008.19 1007.99 1007.77 1006.90 1006.10 1006.09 1006.08 1006.45 1006.55 1006.60 1006.96 1007.54 1008.01 1008.15 1008.30 1008.29 1008.48 1008.84 1009.06 1009.32 1009.49 1009.58 1009.67 1009.88 1010.06 1010.28 1010.48 1010.70 1010.67 1010.82 1010.80 1010.92 1011.23 1011.75 1012.05 1012.33 1012.35 1012.83 1013.12 1013.15
1013.21 1011.51 1010.28 1009.54 1009.16 1008.38 1007.46 1006.74 1006.23 1006.11 1006.50 1006.77 1006.66 1006.87 1007.39 1007.91 1007.99 1008.08 1008.24 1008.37 1008.53 1008.71 1008.88 1009.05 1009.14 1009.39 1009.52 1009.56 1009.68 1009.81 1009.85 1009.90 1010.09 1010.38 1010.69 1011.27 1011.36 1011.65 1011.89 1012.07 1012.27 1012.84 1012.41
1014.10 1012.78 1011.71 1010.83 1009.80 1008.79 1008.05 1007.06 1006.63 1006.86 1007.28 1007.56 1008.01 1008.50 1008.95 1009.00 1009.06 1009.15 1009.39 1009.21 1009.26 1009.22 1009.02 1009.01 1009.23 1009.57 1009.63 1009.51 1009.52 1009.47 1009.53 1009.64 1009.64 1009.91 1010.33 1010.66 1010.95 1011.15 1011.29 1011.32 1011.63 1011.96 1011.91
1014.61 1013.86 1013.09 1012.03 1011.08 1010.40 1009.37 1008.50 1008.47 1008.55 1008.81 1008.95 1009.22 1009.34 1009.84 1009.98 1010.31 1009.98 1010.48 1010.42 1010.09 1010.11 1010.46 1010.29 1009.66 1010.33 1010.12 1010.24 1010.22 1010.40 1010.26 1009.98 1009.89 1009.85 1009.90 1010.05 1010.14 1010.37 1010.53 1010.59 1010.81 1010.93 1010.94
1014.58 1014.16 1013.62 1013.16 1012.38 1011.69 1010.68 1010.32 1010.22 1010.24 1010.53 1010.65 1010.34 1010.78 1011.26 1011.39 1011.83 1011.63 1011.20 1011.75 1010.93 1010.89 1010.87 1011.07 1010.90 1010.88 1011.11 1011.23 1011.02 1011.23 1011.15 1011.01 1010.95 1010.91 1010.62 1010.41 1010.49 1010.35 1009.97 1009.79 1009.87 1009.74 1009.62
1014.69 1014.26 1013.86 1013.56 1013.32 1013.06 1012.60 1012.33 1012.24 1012.18 1012.35 1012.25 1012.01 1012.09 1012.18 1011.93 1013.34 1012.93 1012.91 1013.48 1011.76 1011.92 1011.69 1011.82 1011.84 1011.76 1011.74 1011.76 1011.99 1011.74 1011.61 1011.83 1011.64 1011.36 1011.06 1011.23 1011.05 1010.72 1010.50 1010.49 1009.90 1009.55 1009.24
1014.84 1014.76 1014.39 1014.25 1014.10 1013.95 1013.81 1013.69 1013.55 1013.54 1013.47 1013.11 1013.23 1013.06 1013.96 1014.11 1014.11 1013.85 1013.78 1012.87 1012.47 1012.43 1012.21 1012.35 1012.05 1012.45 1012.40 1012.39 1012.43 1012.22 1011.74 1011.86 1011.74 1011.56 1011.65 1011.60 1011.40 1011.04 1011.04 1010.77 1010.24 1009.72 1009.64
1014.96 1014.95 1014.94 1014.85 1014.79 1014.68 1014.54 1014.55 1014.50 1014.40 1014.38 1014.38 1014.37 1014.67 1014.69 1014.50 1014.10 1013.99 1013.96 1013.35 1012.97 1013.05 1013.17 1013.09 1013.20 1013.14 1013.04 1013.21 1012.83 1012.53 1012.37 1012.36 1012.08 1011.87 1011.77 1011.71 1011.68 1011.58 1011.36 1011.11 1010.49 1010.15 1009.74
1015.10 1015.22 1015.22 1015.28 1015.27 1015.31 1015.28 1015.35 1015.24 1015.14 1015.00 1014.91 1015.02 1015.26 1015.04 1014.65 1014.52 1014.40 1014.11 1013.82 1013.79 1013.77 1013.78 1013.73 1013.70 1013.63 1013.53 1013.57 1013.34 1013.13 1012.70 1012.52 1012.30 1012.08 1011.92 1011.69 1011.49 1011.33 1011.21 1010.89 1010.66 1010.46 1010.00
1014.87 1015.16 1015.38 1015.49 1015.66 1015.78 1015.68 1015.66 1015.79 1015.77 1015.73 1015.72 1015.76 1015.64 1015.35 1015.19 1015.15 1014.91 1014.68 1014.52 1014.45 1014.54 1014.42 1014.35 1014.28 1014.12 1013.98 1014.02 1013.76 1013.52 1013.06 1012.93 1012.70 1012.37 1012.05 1011.70 1011.35 1011.15 1010.95 1010.58 1010.32 1009.98 1009.70
1014.64 1015.24 1015.59 1015.89 1016.04 1016.09 1016.08 1016.14 1016.20 1016.14 1016.10 1016.08 1016.12 1015.90 1015.68 1015.60 1015.55 1015.34 1015.32 1015.34 1015.21 1015.00 1015.01 1014.71 1014.51 1014.43 1014.18 1014.20 1014.00 1013.71 1013.27 1013.03 1012.84 1012.57 1012.25 1011.87 1011.43 1011.09 1010.88 1010.42 1010.01 1009.58 1009.29
1014.44 1015.05 1015.61 1016.02 1016.25 1016.35 1016.41 1016.41 1016.59 1016.75 1016.75 1016.74 1016.64 1016.40 1016.15 1015.93 1015.93 1015.83 1015.86 1015.71 1015.53 1015.44 1015.32 1015.23 1014.92 1014.81 1014.56 1014.64 1014.46 1014.00 1013.37 1013.09 1012.85 1012.71 1012.46 1012.30 1011.85 1011.47 1011.26 1010.53 1009.86 1009.26 1008.61
1014.74 1015.30 1015.84 1016.29 1016.43 1016.62 1016.73 1016.83 1016.98 1016.98 1017.00 1016.95 1016.82 1016.68 1016.46 1016.22 1016.07 1015.99 1015.91 1015.83 1015.78 1015.74 1015.70 1015.61 1015.63 1015.49 1015.24 1015.13 1014.87 1014.35 1013.53 1013.05 1012.92 1012.59 1012.41 1012.26 1012.09 1011.79 1011.34 1010.71 1009.97 1009.07 1008.59
1014.84 1015.48 1015.91 1016.29 1016.68 1016.82 1016.95 1017.03 1017.15 1017.10 1017.24 1017.17 1016.99 1016.84 1016.76 1016.62 1016.59 1016.57 1016.58 1016.61 1016.51 1016.37 1016.04 1015.82 1015.58 1015.44 1015.28 1014.89 1014.72 1014.30 1013.62 1013.12 1012.74 1012.28 1012.11 1012.03 1011.97 1011.60 1011.10 1010.61 1009.98 1009.24 1008.63
1014.90 1015.45 1015.95 1016.58 1016.98 1017.19 1017.15 1017.15 1017.21 1017.53 1017.52 1017.44 1017.35 1017.29 1017.24 1017.10 1017.10 1016.92 1016.78 1016.67 1016.41 1016.18 1015.78 1015.37 1015.06 1014.94 1014.84 1014.76 1014.47 1014.09 1013.72 1013.23 1012.63 1012.12 1011.63 1011.43 1011.33 1011.03 1010.51 1009.89 1009.33 1008.75 1008.08
1014.68 1015.24 1015.72 1016.38 1017.02 1017.23 1017.09 1017.20 1017.81 1017.93 1017.92 1017.84 1017.79 1017.67 1017.63 1017.42 1017.30 1017.09 1016.88 1016.57 1016.40 1016.01 1015.58 1015.29 1014.97 1014.63 1014.40 1014.14 1013.93 1013.56 1013.21 1012.82 1012.58 1012.27 1011.88 1011.38 1010.80 1010.35 1009.81 1009.37 1008.95 1008.35 1007.58
1014.69 1015.20 1015.75 1016.39 1017.04 1017.38 1017.59 1017.82 1018.06 1018.22 1018.16 1018.08 1018.01 1017.90 1017.70 1017.52 1017.40 1017.20 1016.93 1016.58 1016.31 1015.90 1015.60 1015.32 1015.01 1014.77 1014.43 1014.05 1013.76 1013.36 1013.02 1012.72 1012.19 1011.71 1011.22 1010.87 1010.61 1010.22 1009.85 1009.11 1008.52 1008.14 1007.80
1014.84 1015.32 1015.93 1016.68 1017.24 1017.66 1017.99 1018.34 1018.58 1018.73 1018.62 1018.55 1018.44 1018.21 1017.94 1017.70 1017.36 1017.13 1017.02 1016.68 1016.49 1016.48 1016.17 1015.89 1015.59 1015.16 1014.66 1014.52 1014.33 1013.82 1013.30 1012.95 1012.70 1012.10 1011.46 1010.92 1010.45 1009.92 1009.42 1008.89 1008.41 1007.84 1007.21
1014.99 1015.68 1016.31 1016.81 1017.46 1017.87 1018.25 1018.62 1018.86 1018.99 1018.95 1018.64 1018.41 1018.22 1017.98 1017.76 1017.50 1017.24 1016.92 1016.95 1016.92 1016.67 1016.43 1016.14 1015.76 1015.37 1015.09 1014.61 1014.14 1013.80 1013.42 1012.82 1012.35 1011.96 1011.36 1010.86 1010.35 1009.82 1009.28 1008.66 1007.97 1007.45 1006.87
Wind_Speed
18 15 15 14 15 16 16 17 16 14 12 12 11 9 9 8 8 7 13 13 11 11 13 8 9 9 9 11 13 14 14 10 4 3 6 7 10 12 10 10 8 10 11
19 18 15 13 13 15 15 15 16 15 13 12 11 10 7 9 8 8 8 13 14 14 11 11 11 13 9 12 12 12 10 12 10 9 7 7 9 11 9 10 10 10 11
20 19 18 14 12 13 15 15 16 15 14 15 10 8 6 4 4 6 7 12 15 14 12 10 8 10 11 9 11 13 17 11 11 16 10 7 10 7 5 10 6 10 10
18 16 17 16 14 13 12 14 14 15 14 16 12 14 7 8 6 7 9 10 11 10 11 12 11 12 8 10 12 13 14 14 12 8 12 15 9 7 4 2 2 6 11
19 19 18 17 16 12 11 11 13 15 15 14 15 11 13 10 6 8 12 12 11 13 13 12 14 11 9 10 13 12 14 12 13 11 10 13 10 11 6 4 5 6 6
20 17 16 15 13 12 11 11 11 12 14 14 16 15 12 10 9 9 9 8 8 9 13 14 15 14 13 13 13 14 15 15 14 12 12 9 9 11 8 4 8 10 8
19 17 15 11 10 10 11 12 11 12 14 15 15 15 15 11 13 12 8 9 8 8 10 13 13 12 14 14 12 13 15 14 14 15 12 11 11 3 4 4 5 7 4
20 19 14 5 5 8 10 9 10 11 10 13 15 12 11 9 9 9 7 7 7 7 10 12 13 14 15 13 14 12 11 12 12 16 13 10 9 5 5 4 5 6 6
21 21 20 15 13 12 11 7 6 8 8 11 12 12 12 10 8 9 8 8 10 8 11 12 10 9 10 11 12 11 12 11 11 10 9 7 5 5 5 4 6 9 9
17 18 16 16 17 19 14 10 4 6 11 13 12 10 10 9 8 9 10 7 7 8 3 5 4 4 3 2 2 1 2 7 6 6 8 7 6 7 7 7 7 9 12
12 12 13 15 18 17 15 17 17 18 14 14 13 15 13 13 10 11 10 8 9 10 10 8 10 8 8 8 7 7 7 3 3 2 6 7 6 6 6 6 8 10 10
9 10 12 14 15 16 18 19 18 18 15 12 15 15 12 14 11 10 12 9 11 11 10 8 9 9 9 8 9 7 6 7 7 7 6 6 5 7 9 9 12 12 13
8 8 10 12 14 14 14 15 14 15 14 11 13 13 13 15 9 10 10 3 10 9 11 10 9 9 9 9 8 7 7 5 4 5 6 6 6 5 5 8 6 5 4
6 7 9 11 11 12 12 13 12 11 11 12 11 15 8 8 5 6 6 9 11 10 11 9 11 9 9 11 9 7 8 7 6 6 5 6 5 5 6 6 6 6 6
3 6 7 7 8 10 10 10 11 10 9 10 10 9 8 8 9 9 10 11 12 11 11 11 10 10 10 9 11 9 8 8 8 7 7 7 8 10 9 7 9 10 9
1 3 5 6 7 7 8 7 8 8 9 10 10 8 8 9 10 9 10 11 10 9 9 10 9 9 6 14 14 11 7 8 8 9 9 9 9 9 14 13 12 12 12
6 4 3 4 5 6 6 7 7 7 8 8 7 6 7 8 7 8 9 9 10 9 9 9 9 9 7 14 14 14 7 8 9 9 10 10 8 9 10 13 15 14 15
9 7 5 4 3 4 5 6 6 7 8 8 7 7 7 7 7 8 8 8 7 8 7 8 9 8 7 15 16 17 8 7 8 10 11 12 13 13 14 15 13 14 14
9 7 6 5 5 5 5 5 5 5 6 5 5 5 5 5 5 6 6 7 7 6 7 7 8 9 9 15 16 14 9 9 10 10 11 13 14 18 22 17 14 16 14
8 9 8 6 6 5 5 5 4 5 5 5 5 5 6 6 7 8 8 9 9 8 7 8 7 8 7 8 11 11 7 8 7 9 9 11 14 21 22 17 17 16 16
11 9 8 6 5 4 4 5 4 6 6 6 6 7 7 6 7 5 4 5 5 5 5 5 5 5 5 7 11 12 8 8 9 8 8 8 16 20 21 23 15 15 18
11 10 8 6 5 4 4 5 7 6 6 6 6 6 6 4 4 5 4 5 5 5 5 5 5 4 6 7 10 12 12 14 10 10 9 11 20 23 22 19 22 26 24
10 9 8 7 5 4 5 6 6 5 5 4 4 4 4 4 4 4 4 3 4 4 5 5 6 6 7 7 14 16 19 16 11 10 14 22 20 21 17 20 24 22 10
9 8 8 6 5 5 6 6 6 6 5 5 5 4 4 5 4 3 3 3 4 5 6 7 7 8 8 9 10 11 11 14 12 16 13 17 18 17 17 15 12 9 9
8 8 6 5 5 5 5 5 4 4 4 3 3 3 3 4 4 4 4 4 4 6 6 5 6 7 9 9 15 14 11 9 12 15 10 9 9 9 9 9 10 9 9
9 7 7 6 6 5 4 3 3 3 4 3 2 3 3 3 3 3 3 1 3 5 5 7 7 7 11 15 17 17 19 20 17 10 8 8 9 9 9 10 10 9 11
Wind_Direction
307 295 290 271 260 251 248 237 238 236 228 222 218 217 224 209 205 206 212 206 198 193 204 204 199 196 202 204 207 211 219 217 195 150 231 229 237 240 240 243 239 245 245
308 307 299 278 258 254 248 244 243 239 229 231 218 216 215 221 210 206 194 200 201 200 193 197 200 200 197 210 204 207 213 231 203 216 248 244 227 228 239 236 231 234 239
328 319 303 283 267 248 243 239 239 235 232 228 234 212 228 222 189 194 196 200 202 200 201 204 199 206 211 205 214 217 217 221 217 222 232 224 245 231 182 227 230 233 240
321 309 306 295 280 262 246 245 242 235 227 217 219 219 220 217 193 208 209 211 209 200 194 204 210 210 206 215 219 224 223 223 223 211 233 248 272 247 236 185 16 298 253
316 310 303 288 293 277 260 244 237 232 225 218 212 215 224 236 197 217 210 209 204 214 214 212 207 211 215 222 227 226 229 230 231 224 222 228 234 249 242 229 212 221 217
324 316 305 287 280 278 267 254 238 230 219 214 212 211 215 234 221 210 212 210 212 217 228 229 231 228 227 225 229 236 231 229 227 228 223 216 208 219 217 226 239 245 245
335 324 309 291 274 279 282 258 229 223 211 209 212 206 209 218 226 221 219 221 218 219 223 231 231 232 230 223 222 233 235 226 231 226 230 235 232 197 201 209 242 258 248
346 343 352 290 348 1 353 230 211 206 204 212 205 202 199 209 219 219 229 231 237 240 241 235 236 237 241 233 228 226 233 232 228 227 223 226 227 209 205 192 207 253 249
356 5 15 27 27 18 16 349 201 188 193 212 200 189 196 206 213 233 245 254 246 239 237 243 242 238 242 240 230 225 223 222 210 208 210 207 203 196 203 208 203 229 250
360 1 12 23 27 22 9 35 140 109 76 74 83 75 62 55 56 55 47 35 59 40 323 186 137 124 74 52 115 35 266 215 210 207 209 208 211 208 214 207 218 224 238
7 11 13 22 25 24 25 55 61 63 59 68 75 71 58 47 40 67 44 38 60 53 50 44 65 53 53 48 44 39 27 351 320 235 213 224 217 233 225 224 225 231 228
20 29 40 38 30 23 30 44 49 57 48 51 63 64 60 54 30 46 63 14 58 56 52 45 55 53 47 39 53 43 32 25 18 6 354 18 14 337 261 226 229 232 235
21 41 49 50 49 48 41 44 43 48 47 45 54 68 58 51 22 26 52 54 69 62 58 53 50 45 41 38 30 36 39 23 20 11 5 345 336 332 333 314 302 275 280
29 38 48 55 57 60 61 61 56 51 52 51 48 51 55 85 90 77 60 50 54 51 49 46 51 42 46 37 24 15 26 10 1 4 345 329 318 332 311 302 302 305 285
49 53 56 51 60 66 61 67 70 68 72 68 68 74 69 70 64 60 56 57 58 54 50 49 47 40 41 26 17 11 8 360 355 354 346 332 337 312 311 307 302 299 285
143 59 72 75 72 73 82 74 69 65 58 62 61 54 57 52 49 47 46 49 53 52 47 45 42 37 32 14 14 7 354 353 345 338 335 332 325 328 316 314 307 295 291
184 168 120 77 76 75 83 82 85 85 79 78 72 63 60 62 48 43 46 42 39 34 37 33 25 20 21 8 3 357 348 343 338 336 331 325 317 311 316 315 310 301 293
181 176 166 141 109 97 89 79 64 59 59 53 44 39 41 45 39 44 41 34 30 28 20 16 12 2 4 0 358 351 345 336 336 332 328 322 322 320 322 318 306 301 293
177 170 162 147 148 139 126 111 91 71 63 51 41 33 31 51 46 44 35 28 20 16 8 4 2 356 352 357 352 348 341 336 335 336 330 334 324 327 326 315 308 300 296
167 165 160 156 151 140 139 116 105 85 51 30 27 26 26 24 29 21 16 8 3 353 346 342 338 339 336 351 340 336 328 325 326 318 322 324 329 325 322 316 314 310 310
164 161 163 150 133 129 144 118 91 53 27 16 20 25 21 19 19 8 354 337 331 324 321 323 327 327 341 343 344 344 337 342 327 326 328 322 313 309 309 309 304 297 300
162 167 156 142 118 120 137 90 58 28 19 15 20 17 10 9 353 341 333 326 337 332 335 338 349 355 353 359 352 349 349 339 332 327 317 319 321 318 311 311 310 314 314
171 166 154 136 120 89 63 75 49 21 10 8 7 9 354 354 352 342 344 341 347 351 353 352 349 353 354 355 355 353 348 345 338 320 310 308 313 315 316 318 314 312 308
171 160 154 156 131 92 74 66 41 14 354 349 350 351 354 349 358 349 348 346 5 357 358 358 353 349 346 349 349 342 336 334 335 334 321 316 316 311 310 309 315 316 315
162 160 159 153 122 99 80 60 36 6 344 323 327 328 342 343 343 346 347 348 17 356 346 353 343 340 336 335 324 327 331 328 317 321 311 311 305 309 310 312 309 305 305
154 154 152 143 137 132 108 71 29 353 331 301 330 348 336 332 330 329 327 130 3 5 13 352 340 333 320 319 322 321 314 314 326 319 314 312 311 312 314 313 314 314 318